Tracking 31027 objects as of 19-Jul-2025
HD Live streaming from Space Station
objects crossing your sky now

STARLINK-30447

Track STARLINK-30447 now!
10-day predictions
STARLINK-30447 is classified as:


NORAD ID: 57874
Int'l Code: 2023-144L
Perigee: 565.3 km
Apogee: 567.0 km
Inclination: 43.0 °
Period: 95.8 minutes
Semi major axis: 6937 km
RCS: Unknown
Launch date: September 16, 2023
Source: United States (US)
Launch site: AIR FORCE EASTERN TEST RANGE (AFETR)
Your satellite tracking list
STARLINK-30103
Track 1 satellite(s)




NASA's NSSDC Master Catalog

Two Line Element Set (TLE):
1 57874U 23144L   25199.42556501 -.00002808  00000-0 -19269-3 0  9999
2 57874  43.0034  94.9262 0001229 272.2531  87.8170 15.02569546102664
Source of the keplerian elements: AFSPC